TURKMENALEM52E/MONACOSAT

Last updated on Sun Apr 12 2026 00:02:53 GMT+0000 (Coordinated Universal Time)

1 40617U 15023A 26101.53100411 .00000105 00000+0 00000+0 0 9998 2 40617 0.0427 64.7639 0003076 322.0589 56.0990 1.00272870 40171
UTC large
Height (km)
Speed (km/s)
/
Latitude / Longitude
Inclination (degrees)
Orbital Period (minutes)
Azimuth
Elevation
Range (km)
Doppler Factor

Next 0 passes for location: London (51.5072 / 0.1276)

Sorry there are no passes over London.
TURKMENALEM52E/MONACOSAT